Location: Newark
(45.6000°N, 12.8833°E)
Time: 19:19:15
(UTC+00:00)

Envisat - Pass Details

Date: 21 October 2019
Orbit: 764 x 766 km, 98.1° (Epoch: 13 November)

Event Time Altitude Azimuth Distance (km) Brightness Sun altitude
Rises 18:32:36 0° 212° (SSW) 3,221 6.5 -25.0°
Reaches altitude 10° 18:35:48 10° 234° (SW) 2,301 6.0 -25.6°
Maximum altitude 18:38:52 16° 271° (W) 1,925 5.9 -26.1°
Drops below altitude 10° 18:41:56 10° 308° (NW) 2,311 6.3 -26.6°
Sets 18:45:11 0° 330° (NNW) 3,243 6.8 -27.2°
